User: anonymous   Login
Location: Dampvalley
(47.9094°N, 6.1967°E)
Time: 21:42:27
(UTC+00:00)
Language:

CZ-4B R/B - Orbit

View from above orbital plane
View from above orbital plane
View from above satellite
View from above satellite

Ground track
Ground track

The orbit data is extracted from the following two-line orbital elements,

1 37181U 10051C   21134.96777775  .00000301  00000-0  27575-4 0  9997
2 37181  97.7944 122.7931 0106761 282.8824 135.7284 14.98706832578763
Epoch (UTC): 14 May 2021 23:13:35
Eccentricity: 0.0106761
inclination: 97.7944°
perigee height: 497 km
apogee height: 645 km
right ascension of ascending node: 122.7931°
argument of perigee: 282.8824°
revolutions per day: 14.98706832
mean anomaly at epoch: 135.7284°
orbit number at epoch: 57876

The dashed part of the orbit path shows where the satellite is in the earth's shadow,  

DLR